Regional Weather Roundup
Issued by NWS

Home | Current Version | Previous Version | Graphics & Text | Print | Product List | Glossary On
Versions: 1 2 3 4 5 6 7 8 9 10 11 12 13 14 15 16 17 18 19 20 21 22 23 24 25 26 27 28 29 30 31 32 33 34 35 36 37 38 39 40 41 42 43 44 45 46 47 48 49 50
000
ASUS43 KFSD 261302
RWRSD

WEATHER ROUNDUP FOR SOUTH DAKOTA
NATIONAL WEATHER SERVICE SIOUX FALLS SD
800 AM CDT TUE MAY 26 2015

NOTE: "FAIR" INDICATES FEW OR NO CLOUDS BELOW 12,000 FEET WITH NO
SIGNIFICANT WEATHER AND/OR OBSTRUCTIONS TO VISIBILITY.


SDZ001>005-009-010-012>017-261400-
NORTHWEST AND NORTH CENTRAL SOUTH DAKOTA

CITY           SKY/WX    TMP DP  RH WIND       PRES   REMARKS
FAITH            N/A     52  50  93 W3        29.99R
MOBRIDGE       MOSUNNY   55  53  93 W6        29.91S
$$

SDZ012>016-024>037-041>051-057-063-072>074-261400-
SOUTHWEST AND SOUTH CENTRAL SOUTH DAKOTA

CITY           SKY/WX    TMP DP  RH WIND       PRES   REMARKS
RAPID CTY ARPT CLOUDY    52  51  97 E7        29.99R
PIERRE         PTSUNNY   54  52  93 NW10      29.92S
CUSTER         FOG       45  44  97 CALM      30.03R VSB 1/4
ELLSWORTH AFB  CLOUDY    51  51 100 SE5       29.99R
PHILIP         PTSUNNY   53  51  93 NW5       29.97R
PINE RIDGE     CLOUDY    53  50  89 CALM      30.00R
WINNER         FAIR      54  50  86 NW10      29.92R
$$

SDZ004>011-016>023-039-040-261400-
NORTHEAST SOUTH DAKOTA

CITY           SKY/WX    TMP DP  RH WIND       PRES   REMARKS
ABERDEEN       MOSUNNY   55  51  86 CALM      29.88F
WATERTOWN      CLOUDY    53  49  86 N8        29.85S
BROOKINGS      CLOUDY    54  48  82 N10       29.85S
$$

SDZ017-020-022-023-036>040-048>070-261400-
SOUTHEAST SOUTH DAKOTA

CITY           SKY/WX    TMP DP  RH WIND       PRES   REMARKS
SIOUX FALLS    CLOUDY    55  52  89 NE10      29.83R
HURON          MOSUNNY   54  49  83 N10       29.87R
CHAMBERLAIN    PTSUNNY   55  49  81 N9        29.91R
MITCHELL       CLOUDY    54  50  86 N10       29.87R
YANKTON        CLOUDY    55  52  88 N6        29.84R
$$

ABBREVIATIONS USED IN REMARKS
   TC - TEMPERATURE IN CELSIUS
  WCI - WIND CHILL INDEX
   HX - HEAT INDEX
  VSB - VISIBILITY




USA.gov is the U.S. government's official web portal to all federal, state and local government web resources and services.